TimeEST,TemperatureF,Dew PointF,Humidity,Sea Level PressureIn,VisibilityMPH,Wind Direction,Wind SpeedMPH,Gust SpeedMPH,PrecipitationIn,Events,Conditions,WindDirDegrees,DateUTC
12:53 AM,-9999,-9999,N/A,30.07,10.0,NNE,5.8,-,N/A,,Clear,20,2012-11-14 05:53:00
1:53 AM,-9999,-9999,N/A,30.06,10.0,North,6.9,-,N/A,,Clear,10,2012-11-14 06:53:00
2:53 AM,-9999,-9999,N/A,30.05,10.0,NNE,10.4,-,N/A,,Scattered Clouds,30,2012-11-14 07:53:00
3:53 AM,-9999,-9999,N/A,30.04,10.0,NNE,10.4,-,N/A,,Clear,30,2012-11-14 08:53:00
4:53 AM,-9999,-9999,N/A,30.05,10.0,NNE,8.1,-,N/A,,Clear,30,2012-11-14 09:53:00
5:53 AM,-9999,-9999,N/A,30.07,10.0,North,5.8,-,N/A,,Clear,10,2012-11-14 10:53:00
5:57 AM,69.8,66.2,88,30.07,10.0,North,4.6,-,N/A,,Clear,10,2012-11-14 10:57:00
6:53 AM,69.8,66.9,91,30.07,10.0,NNE,10.4,-,N/A,,Mostly Cloudy,20,2012-11-14 11:53:00
7:53 AM,69.8,66.9,91,30.09,10.0,NNE,12.7,-,N/A,,Mostly Cloudy,30,2012-11-14 12:53:00
8:53 AM,71.6,66.9,85,30.10,10.0,NNE,11.5,18.4,N/A,,Scattered Clouds,30,2012-11-14 13:53:00
9:53 AM,73.4,66.9,80,30.12,10.0,NNE,10.4,-,N/A,,Scattered Clouds,30,2012-11-14 14:53:00
10:53 AM,75.2,66.9,75,30.10,10.0,NNE,11.5,16.1,N/A,,Scattered Clouds,30,2012-11-14 15:53:00
11:53 AM,75.2,66.9,75,30.09,10.0,NNE,10.4,18.4,N/A,,Scattered Clouds,20,2012-11-14 16:53:00
12:53 PM,77.0,68.0,74,30.08,10.0,North,11.5,-,N/A,,Scattered Clouds,10,2012-11-14 17:53:00
1:53 PM,75.2,66.9,75,30.05,10.0,North,9.2,-,N/A,,Mostly Cloudy,10,2012-11-14 18:53:00
2:53 PM,-9999,-9999,N/A,30.05,10.0,North,9.2,-,N/A,,Clear,10,2012-11-14 19:53:00
2:58 PM,75.2,68.0,78,30.05,10.0,NNE,10.4,-,N/A,,Mostly Cloudy,30,2012-11-14 19:58:00
3:53 PM,75.2,68.0,78,30.04,10.0,NNE,9.2,-,N/A,,Mostly Cloudy,20,2012-11-14 20:53:00
4:53 PM,75.2,68.0,78,30.04,10.0,NNE,8.1,-,N/A,,Mostly Cloudy,30,2012-11-14 21:53:00
5:53 PM,73.4,68.0,83,30.04,10.0,NNE,9.2,-,N/A,,Mostly Cloudy,30,2012-11-14 22:53:00
6:53 PM,73.4,66.9,80,30.07,10.0,ENE,5.8,-,N/A,,Mostly Cloudy,60,2012-11-14 23:53:00
7:53 PM,73.4,66.2,78,30.09,10.0,NNE,5.8,-,N/A,,Mostly Cloudy,30,2012-11-15 00:53:00
8:53 PM,73.4,66.9,80,30.09,10.0,NNE,8.1,-,N/A,,Mostly Cloudy,20,2012-11-15 01:53:00
9:53 PM,73.4,66.9,80,30.10,10.0,North,6.9,-,N/A,,Mostly Cloudy,350,2012-11-15 02:53:00
10:53 PM,-9999,-9999,N/A,30.09,10.0,North,6.9,-,N/A,,Clear,360,2012-11-15 03:53:00
11:53 PM,-9999,-9999,N/A,30.08,10.0,North,6.9,-,N/A,,Clear,10,2012-11-15 04:53:00